SL-14 DEB, 45305

Orbit data source: Space-Track

SL-14 DEB, 45305 is space debris in LEO originally from a launch on Thu, 15 Aug 1991 UTC launched from the Plesetsk Missile And Space Complex (PKMTR). Debris objects in space refer to the collection of defunct objects orbiting the Earth. Examples of debris include non-operational satellites, rocket bodies, and fragments generated from explosions, collisions, or faulty payload assembly.

Loading next visibility...
Identifier
45305, 1991-056AT
Orbit
LEO
Country
Flag of CISCIS
Related business
Manufacturer
Unknown
Mission
Spacecraft
Bus & Motor
Unknown
Mass
Unknown
Launch date (UTC)
1991-08-15 (34 years ago)
Launch vehicle
Unknown
Launch site
Plesetsk Missile And Space Complex (PKMTR)
Object type
Payload
Rocket body
Debris
Shape & HBR
Unknown shape, 0.1 m
Radar Cross Section
Small (<0.1 m²)

Expand to show TLE details & history
Last TLE update: 22 hours ago

TLE from 22 hours ago
0 SL-14 DEB
1 45305U 91056AT  25352.67447303  .00003086  00000-0  63275-2 0  9991
2 45305  82.5629 244.7803 0039695  12.5817 347.6295 13.32313741281415
Epoch: 2025-12-18T16:11Z
TLE epoch observation values (Epoch: 2025-12-18T16:11:14.469Z)
Latitude
-0.00006°
Longitude
-85.55658°
Altitude
1,111.735 km
Speed
7.311 km/s
True Right ascension
16h 19m 07s
True Declination
0° 00' 00"
Sunlit
Object was in daylight at epoch
Visualization orbit readout
Latitude
Unknown
Longitude
Unknown
Altitude
Unknown
Speed
Unknown
Apparent Right ascension
Unknown
Apparent Declination
Unknown
Sunlit
N/A
Visualization observer readout
Local Sidereal Time
12:44:24
Azimuth
Unknown
Elevation
Unknown
Doppler factor
Unknown
Orbital elements
Apogee altitude
1,165.096 km
Perigee altitude
1,105.447 km
Semi-major axis
7,513.409 km
Eccentricity
0.00397
Inclination
82.5629°
RAAN
244.7803°
Arg. of periapsis
12.5817°
True anomaly
347.53158°
Mean anomaly
347.6295°
Eccentric anomaly
347.58059°
Mean motion
3.33263 °/min
Orbital period
108.02 mins
BSTAR
0.0063275
Loading maneuver chart data...
Computing Atmospheric mass density...
Loading historical data...
Loading historical data...
Loading historical data...
Loading historical data...
Loading historical data...
Loading historical data...
Loading historical data...

Documentation

Showing up to 5 results
|